Terug naar catalogus

KHORS NO. 5

ActiefMilitairSSO
NORAD 67283·PAYLOAD·🇷🇺 Russia
Deze satellietnaam is nog niet bevestigd door officiële bronnen.

Gelanceerd Dec 28, 2025 vanaf Vostochny Cosmodrome

Loading…

Volgende Passages (komende 24 uur)

TLE

VersSource: Space-Track

Epoch: Sep 14, 2026, 10:12 UTC

1 67283U 25313AM  26257.42523502  .00006794  00000-0  27491-3 0  9997
2 67283  97.3865 331.1025 0011058  50.9117 309.3103 15.24971792 39568

Volg KHORS NO. 5 in realtime met AllMySat

Download on the App Store